HULIANWANG DIGUI-107

Last updated on Mon Dec 15 2025 00:02:13 GMT+0000 (Coordinated Universal Time)

1 66917U 25285C 25348.33654701 .00000078 00000+0 14115-3 0 9991 2 66917 50.0065 110.7408 0008308 294.2783 65.7254 14.05293730 1130
UTC large
Height (km)
Speed (km/s)
/
Latitude / Longitude
Inclination (degrees)
Orbital Period (minutes)
Azimuth
Elevation
Range (km)
Doppler Factor

Next 0 passes for location: London (51.5072 / 0.1276)

Sorry there are no passes over London.